sat.trackr.live / text

‹ back to catalog

STARLINK-33918

NORAD 63796 · 2025-091X

PAYLOAD ACTIVE UNKNOWN

§ Identity

Operator
Country
US
Launch date
2025-05-02
Launch site
AFETR
Launch vehicle
Mass (kg)
RCS (m²)

Purposes: comms

External: N2YO · Heavens-Above · Gunter

§ Orbital elements

Epoch: 2026-05-24T21:19:29.654688Z

Period
94.27 min
Inclination
43.0008°
Eccentricity
0.0001323
Mean motion
15.27595650 rev/d
Perigee alt
482.1 km
Apogee alt
483.9 km
Semi-major
6,861.1 km
B*
7.3332e-4
RAAN
342.3835°
Arg perigee
272.8724°
Mean anomaly
87.1976°
Rev number
6,060

§ Raw data

STARLINK-339181 63796U 25091X   26144.88853767  .00019982  00000+0  73332-3 0  99962 63796  43.0008 342.3835 0001323 272.8724  87.1976 15.27595650 60602

JSON: /api/v1/satellites/63796 · /tle

For live sub-satellite position, see the globe view (requires WebGL).

§ Visibility from observer

Set your observer location to see the next 7 days of passes ≥ 10°. The values pass through the URL so the page stays shareable.

No JS? Fill the form by hand. The geolocation button needs JavaScript.